RH
83 79 99 98 99 96 93 92 94 96 90 94 96 96 94 93 95 94 94 91 84 85 79 84 86 85 89 94 96 96 94 96 96 94 89 89 92 96 94 83 80 84 96
74 76 100 98 99 100 94 92 94 95 94 95 88 92 80 78 89 95 95 94 95 95 94 83 93 94 96 97 97 95 94 92 92 90 91 88 90 95 92 80 89 94 94
74 80 98 98 98 97 95 96 93 90 89 83 79 76 81 78 88 91 89 96 96 96 94 87 95 98 97 96 96 100 100 93 93 92 92 92 92 94 91 86 89 92 95
75 81 89 100 98 95 95 95 97 93 84 81 80 82 79 79 70 88 84 81 90 96 90 84 86 91 89 75 92 100 96 93 93 92 92 91 91 96 96 92 90 92 98
82 81 81 88 99 99 98 95 95 94 86 85 82 83 84 64 67 79 88 83 88 94 98 97 95 90 88 89 87 98 81 84 88 87 88 96 97 99 99 98 97 82 89
78 75 74 75 99 99 98 97 94 94 88 94 90 82 87 89 94 78 86 89 95 95 97 91 91 89 90 97 99 94 89 86 85 88 88 92 94 97 96 97 95 97 97
79 82 80 78 90 97 97 94 88 86 89 86 78 82 88 88 82 85 87 94 93 74 72 77 86 92 93 97 94 88 84 84 88 92 94 92 91 95 99 96 97 98 98
83 85 86 85 93 96 93 85 85 86 97 82 84 94 88 91 87 92 97 96 94 96 96 99 89 92 94 99 87 85 83 80 84 94 94 95 96 96 99 98 98 99 99
86 97 98 100 80 80 85 80 83 90 94 90 97 82 76 91 92 99 100 98 99 99 99 94 100 98 100 100 82 80 80 79 83 88 87 85 84 100 100 99 99 99 99
88 92 97 90 81 83 84 86 93 91 92 99 93 84 80 82 58 99 97 99 100 97 99 99 99 98 95 89 81 77 77 79 82 85 85 86 96 100 100 99 99 100 100
94 90 89 89 88 89 79 100 98 99 99 99 100 89 83 74 60 91 98 98 99 99 96 98 99 95 92 82 74 73 73 77 82 82 84 85 90 90 93 96 94 96 97
99 96 87 86 93 88 83 100 98 99 99 94 91 84 88 86 89 93 90 92 98 96 93 99 99 81 74 69 64 61 62 71 75 82 82 84 95 94 92 91 85 88 89
100 89 86 72 92 89 85 100 100 99 92 97 92 89 85 92 99 96 92 84 92 94 88 86 75 70 68 64 60 57 70 82 90 88 80 88 95 93 94 96 88 89 88
94 76 78 70 89 92 82 95 96 98 97 100 100 99 98 95 88 90 90 94 90 92 84 72 63 60 59 56 54 65 86 93 89 84 85 84 88 95 96 92 91 88 89
98 84 75 70 83 96 84 82 92 100 96 89 96 98 100 98 88 85 75 72 74 68 58 54 56 57 55 50 53 79 92 88 82 78 78 81 90 90 90 88 85 85 84
97 100 99 82 76 97 90 90 86 93 93 91 84 87 90 87 85 76 66 58 48 42 36 49 53 53 55 61 83 95 92 85 80 79 80 80 90 86 88 85 84 83 83
96 99 97 97 73 97 98 93 82 76 75 76 78 78 69 67 78 75 71 53 31 22 25 36 50 52 68 84 95 95 90 86 83 82 82 86 88 90 88 86 85 84 83
99 100 98 100 85 94 100 97 86 76 74 79 82 83 83 80 74 72 54 25 19 19 19 25 41 60 85 96 96 90 86 87 86 85 81 78 76 74 88 89 87 86 86
97 100 99 100 99 96 100 96 90 83 82 81 79 77 75 70 54 30 19 16 17 19 22 30 54 58 83 96 96 92 89 87 86 83 76 66 58 50 52 77 86 90 88
96 100 100 100 100 100 100 100 96 89 86 81 74 68 65 51 26 19 17 16 16 18 21 33 52 72 81 89 90 87 83 79 74 64 48 33 28 30 31 25 40 68 80
97 98 98 100 100 100 100 100 90 82 80 73 66 63 60 45 26 21 21 19 17 16 18 23 49 68 73 72 62 42 41 43 38 32 30 28 27 24 21 20 22 28 33
98 93 97 100 100 100 100 100 94 80 69 65 60 55 49 41 28 23 21 20 18 17 17 18 27 54 59 46 29 30 43 33 32 32 31 29 27 25 24 23 23 22 23
98 98 99 100 100 100 100 99 97 90 79 67 65 49 42 35 28 25 24 22 18 18 20 21 22 22 36 30 24 30 50 38 40 34 33 31 30 28 27 27 26 25 25
99 100 100 100 100 100 99 99 97 94 89 81 72 60 52 34 28 24 22 22 19 19 18 20 21 22 23 24 25 31 33 27 42 43 37 36 34 32 30 30 29 28 27
100 100 100 100 100 100 99 96 95 93 86 83 71 65 60 53 34 28 24 20 19 18 20 21 22 22 24 26 26 33 36 35 36 42 48 45 38 36 34 34 34 33 33
96 100 100 100 99 100 98 94 92 92 88 81 66 55 57 59 52 43 34 28 27 26 26 23 23 24 26 27 29 29 29 34 38 40 52 52 46 39 37 37 36 36 37
Wind_Speed
16 18 16 13 11 13 13 15 15 15 15 15 15 14 13 14 16 16 17 18 19 18 17 19 19 19 20 20 19 19 20 20 21 22 24 23 24 22 23 24 23 25 24
18 20 17 14 12 12 14 14 15 15 15 15 15 15 13 12 16 17 18 19 20 19 19 21 21 21 22 21 21 21 21 23 25 25 26 23 24 23 23 24 25 24 24
21 19 16 15 13 13 14 14 14 14 15 14 13 11 11 13 4 11 16 18 20 19 21 22 22 22 24 24 23 23 23 25 25 26 26 26 25 24 24 24 25 25 24
20 19 17 15 14 13 13 13 13 13 14 13 11 12 14 18 15 10 15 18 19 19 18 20 22 23 26 24 23 21 24 26 26 26 26 25 24 23 24 24 25 24 24
19 16 15 16 15 13 12 14 11 12 13 14 13 13 18 19 23 21 14 16 19 22 23 25 26 28 28 26 25 23 26 26 26 26 25 24 23 21 22 23 23 22 21
17 14 12 15 15 13 12 13 13 12 13 13 14 15 18 19 23 24 16 15 24 29 29 28 28 27 27 26 26 27 26 26 26 26 25 23 23 22 22 23 22 22 21
15 12 11 12 13 13 13 12 14 14 12 12 14 14 18 19 21 26 23 26 34 32 32 28 26 25 23 22 25 28 29 28 28 27 26 25 23 23 23 23 24 24 24
14 10 9 13 12 11 10 11 13 14 13 13 11 14 17 19 21 24 32 37 31 25 24 25 29 28 26 23 27 27 26 26 25 26 27 25 23 24 24 24 25 25 24
15 13 13 14 12 9 9 8 10 12 12 12 14 8 17 17 8 16 41 38 32 29 24 29 31 28 27 22 25 24 23 23 23 23 22 20 16 21 24 25 25 24 22
16 14 14 11 11 9 4 8 11 12 10 18 15 12 16 20 11 11 39 34 31 29 23 30 28 27 24 22 21 21 19 19 21 21 23 22 19 20 21 22 22 22 20
17 15 15 13 11 9 7 16 15 20 19 17 19 18 17 17 14 8 34 30 28 27 26 24 26 26 25 24 23 22 22 23 23 23 24 22 19 19 17 18 18 17 17
18 19 16 13 14 14 14 21 24 24 21 21 23 23 25 26 25 21 18 23 20 24 24 23 23 26 23 23 22 21 23 23 24 25 22 19 19 20 19 17 17 18 18
21 22 19 16 16 17 17 24 23 22 21 21 18 22 24 27 28 27 30 27 22 21 21 19 23 24 23 23 21 21 23 25 25 25 20 21 19 18 17 17 16 16 15
26 25 22 19 20 20 19 21 19 21 21 19 18 20 27 29 29 30 28 25 23 20 18 20 22 23 22 20 19 22 24 25 25 23 18 17 16 17 17 16 14 14 15
23 27 27 25 25 23 21 20 21 21 21 21 21 20 22 27 29 28 26 22 18 18 21 25 24 24 22 20 21 24 24 23 23 23 18 16 16 16 15 15 13 13 13
25 24 27 30 26 27 25 24 23 23 23 21 18 20 23 23 27 29 27 21 17 17 21 23 25 23 22 22 23 24 23 22 23 23 21 18 16 15 14 13 12 12 12
34 27 27 30 29 30 30 27 24 23 22 21 21 21 19 20 22 25 24 20 20 19 21 22 22 23 24 23 24 23 21 21 23 23 22 17 17 16 14 13 12 12 11
29 30 29 29 32 31 32 30 27 25 24 22 21 20 21 22 23 22 20 19 20 21 21 22 24 25 25 25 24 22 20 21 20 19 15 12 11 12 14 13 12 12 11
35 33 32 31 34 34 33 31 29 26 25 24 22 21 21 21 22 23 22 21 20 20 22 24 25 27 27 26 24 22 20 19 16 13 11 10 8 8 10 12 13 11 11
31 33 32 31 33 34 34 31 28 26 26 24 24 22 20 21 20 21 23 24 23 22 21 22 25 25 27 27 25 21 16 14 11 9 8 8 8 7 6 7 8 9 10
28 30 32 30 32 36 34 32 28 29 27 25 24 24 23 22 21 21 22 23 24 23 23 23 25 27 26 25 20 17 13 9 7 7 6 6 5 4 4 4 4 4 5
25 28 30 29 35 36 35 30 24 28 26 26 23 22 21 21 20 19 21 24 25 26 25 27 30 28 27 25 8 9 3 3 4 7 7 6 5 5 4 4 3 2 2
17 25 28 30 33 34 31 31 24 26 23 22 23 21 20 20 21 23 23 22 23 25 28 30 32 32 26 22 19 5 3 3 5 8 10 8 8 7 6 4 3 2 2
9 10 24 26 31 30 34 33 33 26 18 19 29 26 24 20 21 21 22 23 24 24 26 28 27 23 23 24 19 2 2 8 3 2 6 11 10 9 8 7 4 4 3
16 6 20 25 29 29 33 33 33 27 24 25 26 26 22 22 19 19 22 24 26 24 24 25 25 19 15 17 13 6 3 6 7 3 2 4 11 11 9 7 6 5 4
24 21 13 24 25 29 30 29 27 30 30 27 25 26 28 24 20 19 18 19 21 23 25 25 23 20 14 14 10 6 5 2 2 4 3 2 2 7 11 10 9 7 6
Wind_Direction
191 174 178 186 189 188 189 196 193 190 190 186 185 186 181 178 181 180 176 169 169 167 161 152 148 147 140 135 126 120 117 115 113 113 108 104 106 104 103 105 107 107 107
175 173 179 185 189 195 188 194 197 193 190 198 200 191 198 190 185 176 174 171 168 161 155 153 147 143 136 130 124 120 117 116 114 112 111 110 106 105 103 105 101 101 104
178 175 179 186 191 193 196 200 206 202 200 210 219 212 182 162 231 189 178 167 167 161 159 157 150 142 134 126 120 117 115 118 117 114 112 109 107 105 102 104 101 98 95
175 179 184 187 195 195 205 210 208 211 214 211 212 202 185 160 179 239 201 172 163 156 158 157 151 142 128 126 121 117 120 121 118 114 111 110 111 109 106 103 101 101 99
173 184 192 194 201 202 204 214 217 219 221 226 223 208 201 202 180 207 208 169 152 139 135 133 133 131 131 135 134 124 126 124 119 113 110 109 108 106 106 105 104 106 103
172 186 191 198 201 207 214 220 226 230 230 225 225 215 203 196 200 195 175 178 143 132 127 125 123 126 126 123 122 125 125 124 119 115 115 112 104 105 105 104 102 101 99
172 177 185 192 202 208 219 222 234 240 236 229 226 216 208 204 207 206 191 165 145 138 135 129 122 124 128 131 133 130 125 120 114 112 109 106 108 108 104 105 102 98 97
165 169 191 192 201 197 207 226 243 236 232 227 221 214 210 210 210 192 169 143 141 139 146 143 142 142 141 137 134 132 130 127 121 114 110 104 104 104 104 102 99 98 93
165 160 164 168 187 203 234 234 226 214 223 214 178 192 204 196 156 246 133 129 124 125 135 141 140 140 141 135 134 131 127 125 124 123 120 115 112 102 98 94 92 90 90
168 178 178 174 181 193 194 190 165 162 158 148 178 167 171 166 81 63 117 116 118 122 118 121 130 131 137 133 130 130 130 128 125 122 115 111 109 102 98 94 91 89 88
174 177 179 181 186 163 148 153 150 149 151 144 138 143 144 156 135 66 93 108 116 116 119 125 124 132 135 133 126 124 125 122 121 112 109 111 109 102 101 100 92 87 81
179 179 177 179 168 165 158 153 142 145 156 154 147 140 126 125 135 141 131 112 117 123 116 120 129 141 138 130 124 125 121 120 115 113 113 113 106 104 101 100 96 86 83
179 179 181 188 176 171 160 159 161 164 161 156 150 139 140 138 141 143 146 145 139 138 145 148 138 138 133 131 128 126 124 122 124 121 121 112 102 101 98 94 92 89 86
183 186 187 191 183 178 173 168 170 173 181 176 170 162 156 151 144 143 146 145 146 148 149 148 142 137 136 132 132 133 132 132 128 121 117 112 102 100 99 93 92 89 86
182 188 193 190 184 180 181 178 177 174 171 171 164 161 157 152 149 148 142 142 150 157 152 149 145 142 135 134 136 140 138 134 131 127 124 120 98 94 95 95 93 89 87
184 187 187 188 192 181 182 180 175 174 170 170 171 169 169 161 156 153 146 152 157 156 150 151 149 141 136 136 135 138 137 134 130 131 131 126 107 105 95 94 92 88 89
190 184 183 187 195 187 182 180 180 180 182 178 173 171 166 160 155 152 158 156 155 156 151 147 142 139 136 134 132 133 132 131 130 132 137 130 125 103 95 94 91 89 87
185 184 183 182 192 192 188 185 181 183 183 179 176 175 174 171 170 167 166 160 153 156 156 152 147 142 136 134 131 137 137 130 126 129 128 130 133 118 98 93 92 91 88
189 182 182 183 189 192 191 188 183 182 184 184 184 181 179 178 171 166 164 162 160 156 152 152 148 148 138 133 130 129 127 130 130 127 131 137 133 130 119 100 97 86 86
189 185 181 185 185 190 188 186 183 181 181 183 184 185 183 179 173 171 167 166 164 161 154 151 149 144 141 136 127 118 115 117 122 128 138 137 143 141 127 103 111 99 84
186 184 185 180 182 183 180 177 178 180 181 181 183 181 183 182 181 178 173 168 166 167 161 156 150 148 139 140 118 99 89 99 122 135 136 144 135 130 131 130 136 132 114
189 189 187 182 181 185 183 179 179 183 183 185 183 185 186 186 184 183 184 178 173 169 169 168 166 149 149 155 138 118 126 95 168 176 181 179 165 160 161 148 144 149 149
187 191 185 183 181 182 182 184 175 178 180 181 185 186 187 191 190 192 191 188 185 181 175 174 174 169 166 172 164 158 130 180 151 194 199 196 197 191 187 183 177 170 166
7 189 184 181 178 179 190 188 187 175 169 191 189 187 181 191 193 194 195 193 192 190 187 183 181 182 175 172 179 119 94 132 154 149 204 207 209 207 206 200 207 211 201
18 76 178 171 170 178 191 196 189 181 185 188 189 183 185 178 192 186 194 190 191 191 198 191 194 191 188 179 170 148 86 85 107 117 160 187 216 214 213 213 214 222 213
19 44 105 150 162 181 186 193 185 189 185 178 178 177 177 179 187 181 191 191 194 192 193 190 194 196 198 198 179 147 132 113 121 107 101 119 172 207 210 212 214 220 223